Flag for U.S.A. Weather past 2 weeks in Lynchburg, Virginia, U.S.A.

Now
51 °F

Sunny.


Feels Like: 48 °F
Forecast: 34 / 51 °F
Wind: 9 mph from West

Location: Lynchburg Regional Airport

Current Time: Dec 25, 2014 at 12:19:46 PM

Latest Report: Dec 25, 2014 at 11:54 AM


Visibility: 10 mi

Pressure: 30.02 "Hg

Humidity: 44%

Dew point: 30 °F

Location of LynchburgLocation

Historic Weather in Lynchburg — Graph

°F

Lynchburg temperature yesterday

Maximum temperature yesterday: 52 °F (at 11:54 PM)
Minimum temperature yesterday: 42 °F (at 12:04 AM)
Average temperature yesterday: 46 °F

Past Weeks' High & Low Weather Summary

 TemperatureHumidityPressure
High57 °F (Dec 13, 2:54 PM)100% (Dec 15, 7:54 AM)30.34 "Hg (Dec 15, 7:54 AM)
Low24 °F (Dec 13, 5:54 AM)21% (Dec 12, 12:54 PM)29.63 "Hg (Dec 24, 11:02 PM)
Average39 °F71%30.07 "Hg
* Reported Dec 10 10:54 AM — Dec 25 10:54 AM, Lynchburg, Weather by CustomWeather, © 2014

Note: Actual official high and low records may vary slightly from our data, if they occured in-between our weather recording intervals... More about our weather records

Advertising

Lynchburg weather history for previous 24 hours

 ConditionsComfort  
Time TempWeatherWind HumidityBarometerVisibility
10:54 AM
Dec 25
48 °FSunny.14 mph50%30.00 "Hg10 mi
9:54 AM47 °FOvercast.12 mph54%29.99 "Hg10 mi
8:54 AM47 °FScattered clouds.7 mph54%29.94 "Hg10 mi
7:54 AM45 °FPartly sunny.8 mph63%29.91 "Hg10 mi
6:54 AM46 °FPassing clouds.No wind68%29.86 "Hg10 mi
5:54 AM46 °FClear.5 mph71%29.81 "Hg10 mi
4:54 AM47 °FClear.8 mph69%29.76 "Hg10 mi
3:54 AM49 °FPassing clouds.10 mph66%29.73 "Hg10 mi
2:54 AM50 °FPassing clouds.9 mph77%29.71 "Hg10 mi
1:54 AM50 °FMostly cloudy.3 mph93%29.66 "Hg10 mi
12:54 AM50 °FPartly cloudy.10 mph96%29.68 "Hg10 mi
11:54 PM
Dec 24
52 °FLow clouds.5 mph100%29.63 "Hg10 mi
11:02 PM49 °FFog.7 mph100%29.63 "Hg0 mi
9:54 PM48 °FFog.5 mph100%29.64 "Hg1 mi
8:54 PM48 °FFog.5 mph100%29.63 "Hg1 mi
7:54 PM47 °FLight rain. Fog.5 mph100%29.64 "Hg1 mi
6:54 PM48 °FFog.No wind100%29.65 "Hg2 mi
5:54 PM48 °FFog.5 mph100%29.66 "Hg1 mi
4:54 PM48 °FFog.3 mph100%29.67 "Hg1 mi
3:54 PM49 °FFog.No wind100%29.67 "Hg3 mi
2:59 PM49 °FFog.3 mph100%29.68 "Hg3 mi
1:54 PM48 °FFog.5 mph100%29.71 "Hg1 mi
12:54 PM48 °FLight rain. Fog.No wind100%29.74 "Hg1 mi
12:01 PM46 °FLight rain. Fog.No wind100%29.77 "Hg5 mi
Weather by CustomWeather, © 2014

See weather overviewHow to use our weather pages